map of KEZS home
KEZS - Airport
Location
City:  Shawano, Wisconsin, United States
Name:Shawano Municipal Airport
ICAO:KEZS
FAA LID:EZS

Details
Type:Airport (Airfield)
Use:Public/Civil
Latitude:4447'14"N (44.787306)
Longitude:8833'36"W (-88.560013)
Datum:WGS 1984
Elevation:812 ft (247 m)
Variation:3.71W (WMM2015 magnetic declination)
-0.05 annual change
Runways:2
Longest:3899 × 75 ft (1188 × 23 m), paved

Time
Time Zone:UTC-6 (DST-5)
Local Time:

Weather
METAR:KEZS 161955Z AUTO 27012G20KT 240V300 10SM SCT050 14/01 A2985 RMK AO2 T01360009

Related Locations
Nearby:
Farthest:YAUG: 10989 mi / 17686 km
Augusta [Augusta Airport], WA, AU

Find:

   beyond  
but within

Other Information
Maps:
NOTAMs:
Links:
Sources:

  
  • flag of United States
  • flag of Wisconsin
  

Sectional Chart

Flight Planning
at skyvector.com

Satellite Image

Google Maps Satellite view

 

Copyright © 2004-2018 Karl L. Swartz. All rights reserved.
The Great Circle Mapper name and logo are trademarks of the Great Circle Mapper.
All other trademarks mentioned herein belong to their respective owners.
Please see credits for attibutions and further copyright information.

  Follow gcmap on Facebook Follow gcmap on Twitter Follow gcmap on Google+ GCmap on LinkedIn

hCard Microformat

Geo Microformat